Погода в Аяне

Погода в Аяне : погода сейчас, прогноз погоды и архив. Всё, что Вы хотите узнать о погоде в Аяне!

Хотите узнать прогноз погоды в Аяне? Тогда Вам сюда: Погода в Аяне

Поиск расширенной информации на нашем сайте:

Другие новости

Новости СМИ2

Главная страница сайта

Новости сайта

02.10.2013

Напоминаем, что на нашем новом сайте вы можете получить высокодетализированные прогнозы погоды по пунктам России, СНГ и мира (включающие важные для авиации метеовеличины, такие как направление и скорость ветра, видимость, явления погоды, количество и форма облачности, нижняя и верхняя граница облачности), а также ознакомиться с разнообразными материалами по авиационной метеорологии и подборкой полезных ссылок на эту тему.

Сайт Метеоцентр.Азия посвящён разработке технологий оптимизации авиаметеорологического обслуживания, включая проектирование и перспективное создание нескольких автоматизированных авиаметеорологических систем:
- система выпуска высокодетальных прогностических карт явлений погоды для нижнего воздушного пространства по России и ближнему зарубежью;
- система верификации прогнозов TAF (выпускаемых синоптиками официальных АМСГ РФ и ближнего зарубежья) и AUTOTAF (выпускаемых сайтом Метеоцентр.Азия) - выявление ошибок, онлайн-сопоставление с фактической погодой METAR, автоматическое внесение коррективов в прогнозы при резком отклонении фактической погоды от прогноза, подсчёт оправдываемости прогнозов по элементам и в целом;
- система обработки, анализа и отображения авиаметеорологической информации для применения провайдерами метеорологической информации.


Погода в Аяне - сегодня

Время (UTC), дата Ветер
(°,м/с) 
Видим.   Явления Облачность Т
(°С)
Тd
(°С)
f(%) Тe
(°С)
Pmin
(гПа)
dP
(гПа)
Po
(мм)
O2
(г/м3)
Тmin Tmax R s Состояние
почвы
18 17.01.17 020 (С) 20000 м    ясно 
-20.7 -22.5 85 -24  1028.1  -0.4  770  338           
21 17.01.17 020 (С) 20000 м    3/0 верхняя 
[Ci fib]
-22.7 -24.9 82 -23  1027.7  -0.5  770  340  -23.5      87  равномерный
сухой снег
100% 
00 18.01.17 030 (СВ) 20000 м    6/0 верхняя 
[Ci]
-24.2 -26.7 80 -25  1027.5  -0.2  770  342  -24.2         
03 18.01.17 тихо ()   20000 м    ясно 
-16.8 -20.8 71 -17  1026.1  -1.3  769  332           
06 18.01.17 240 (ЮЗ) 20000 м    ясно 
-14.7 -25.1 41 -15  1025.7  -1.3  769  329           
09 18.01.17 190 (Ю) 20000 м    ясно 
-17.1 -26.2 45 -17  1025.7  769  332    -12.2       
12 18.01.17 200 (Ю) 20000 м    ясно 
-19.5 -26.7 53 -20  1025.6  0.1  769  335           
15 18.01.17 210 (ЮЗ) 20000 м    ясно 
-18.5 -27.1 47 -19  1025.2  -0.4  768  334           
18 18.01.17 190 (Ю) 20000 м    ясно 
-19.1 -27.9 46 -19  1024.8  -0.4  768  335           
21 18.01.17 150 (ЮВ) 20000 м    ясно 
-19.8 -28.8 45 -20  1024.5  -0.3  768  335  -21.5      87  равномерный
сухой снег
100% 
00 19.01.17 210 (ЮЗ) 20000 м    1/0 верхняя 
[Ci fib]
-20 -29 45 -24  1024.3  -0.2  768  336           
03 19.01.17 210 (ЮЗ) 20000 м    1/0 верхняя 
[Ci fib]
-17.5 -28.6 37 -20  1023.3  -1  767  332           
06 19.01.17 210 (ЮЗ) 20000 м    3/0 верхняя 
[Ci fib]
-18.8 -29.4 39 -21  1022.7  -0.6  766  333           
09 19.01.17 220 (ЮЗ) 20000 м    ясно 
-20.3 -30.4 40 -23  1023.1  0.4  767  336    -17.3       
12 19.01.17 200 (Ю) 20000 м    ясно 
-20.8 -30.9 40 -24  1023.1  767  336           
15 19.01.17 160 (Ю) 20000 м    ясно 
-22.1 -30.6 46 -25  1022.4  -0.7  766  338           
18 19.01.17 360 (С) 20000 м    ясно 
-25.3 -31.3 57 -26  1022  -0.4  766  342           
21 19.01.17 170 (Ю) 20000 м    ясно 
-21.2 -31.1 41 -24  1021.9  0.1  766  336  -26.1      86  равномерный
сухой снег
100% 
00 20.01.17 170 (Ю) 20000 м    3/1 600 м верхняя 
[Sc|Ci fib]
-21.4 -31.1 41 -22  1022.2  0.4  766  337           
03 20.01.17 230 (ЮЗ) 20000 м    3/1 600 м верхняя 
[Sc|Ci fib]
-17.9 -30.3 33 -20  1021.8  -0.4  766  332           
06 20.01.17 220 (ЮЗ) 20000 м    10/0 средняя, верхняя 
[Ac trans|Ci fib]
-18.3 -30 35 -19  1022.1  0.3  766  333           
09 20.01.17 010 (С) 20000 м    4/0 верхняя 
[Ci fib]
-24.1 -29.4 61 -25  1023.1  767  341    -16.8       
12 20.01.17 010 (С) 20000 м    4/0 верхняя 
[Ci fib]
-24.5 -29.9 61 -25  1023.9  0.8  767  342           
15 20.01.17 тихо ()   20000 м    ясно 
-25.2 -30.3 62 -25  1023.6  -0.3  767  342           
18 20.01.17 020 (С) 20000 м    ясно 
-25.8 -29.9 69 -26  1023.5  0.1  767  343           
Время (UTC), дата Ветер
(°,м/с) 
Видим.   Явления Облачность Т
(°С)
Тd
(°С)
f(%) Тe
(°С)
Pmin
(гПа)
dP
(гПа)
Po
(мм)
O2
(г/м3)
Тmin Tmax R s Состояние
почвы

Для получения пояснительной информации подведите курсор к названию столбца.

ПОГОДА в Аяне - архив

Всё, что Вы хотите узнать о погоде в Аяне - удобно и подробно!

Выберите нужную дату (начиная с 1 января 2015* года) и нажмите кнопку "Найти".
Будут отображены архивные сводки погоды по пункту Аян, начиная с указанной даты.


Отображать данные в формате CSV (для использования в таблицах Excel)


Внимание! Наш архив погоды предназначен исключительно для личного некоммерческого использования в познавательных целях. Если Вам необходимы официальные справки о состоянии погоды (для производственных, юридических, коммерческих и т.п. целей), обращайтесь в органы Росгидромета.

*Примечание: данная дата относится к архиву по метеостанциям СССР (Россия, СНГ, Балтия).
Архив по метеостанциям Зарубежной Европы и Азии (кроме Китая) хранится 10 дней, по другим регионам земного шара (Китай, Африка, Америка, Австралия, Океания) - 1 день.

Аян - район местоположения метеостанции


Название, широта, долгота, высота метеостанции:
Аян 56.4°ш. 138.2°д. 8 м над ур. моря [Российская Федерация]

Дополнительная информация

В oтличие oт бoльшинства пoгoдных сайтoв мы публикуем пoдрoбную метеoинфoрмацию в детальнoм прoфессиoнальнoм фoрмате.

Характеристики температуры и влажнoсти вoздуха измеряются на высoте 2 м в тени вдали oт зданий и деревьев.
Скoрoсть ветра измеряется на высoте 10 м (на урoвне рoста челoвека скoрoсть ветра ниже в 1.5-2 раза). Если метеoстанция нахoдится в гoрoде или в лесу, тo скoрoсть ветра занижена на 2-4 м/с пo сравнению с oткрытым местoм. Скoрoсть ветра над акватoриями крупных рек и oзёр, а также на вершинах хoлмoв на 2-5 м/с выше, чем в oбычных услoвиях.
Атмoсфернoе давление в разных тoчках местнoсти мoжет значительнo oтличаться oт давления на метеoстанции, в зависимoсти oт услoвий рельефа (при пoдъёме на 10 м давление пoнижается примернo на 1 мм рт.ст.).